Погода в Оамару

Новая Зеландия     45°05′53″S   170°58′09″E
темп.,
°C
ветер,
м/с
пор.,
м/с
влажн.,
%
обл.,
%
осадки,
мм/ч
давл.,
гПа
погр.,
м
20 мая, пт
пт2000:00+7зсз236193 0.0 99645
03:00+6юв1167100 0.0 99520
06:00+7юз3460100 0.0 996135
09:00+7юз4769100 0.1 997252
12:00+8юз81259100 0.1 9991264
15:00+10юз8134470 0.0 10002112
18:00+6юз917561 0.0 10031358
21:00+5зюз815580 0.0 10061001
21 мая, сб
сб2100:00+3зсз346188 0.0 1005172
03:00+4ссз4955100 0.0 1001173
06:00+6з510575 0.0 1003607
09:00+9зюз818482 0.0 10031540
12:00+13зюз819411 0.0 10022162
15:00+12зюз1122421 0.0 10022185
18:00+8юз11226246 0.0 10051868
21:00+7юз1221595 0.0 10071597
22 мая, вс
вс2200:00+8юз9175711 0.0 10071292
03:00+5зсз24655 0.0 1006220
06:00+4сз336096 0.0 100541
09:00+6зсз335195 0.0 100448
12:00+13зюз4124185 0.0 10031779
15:00+10юз9136614 0.1 10031130
18:00+8зюз1020565 0.1 10081666
21:00+8зюз10185760 0.0 10101563
23 мая, пн
пн2300:00+8зюз7145411 0.0 10111268
03:00+5з35615 0.0 1013215
06:00+4зсз22615 0.0 101336
09:00+5сз235746 0.0 101354
12:00+11сз22390 0.0 1012363
15:00+11юв32410 0.0 1011318
18:00+6ссз22600 0.0 101228
21:00+5сз22630 0.0 101328
24 мая, вт
вт2400:00+5сз33660 0.0 101345
03:00+5зсз45720 0.0 101268
06:00+4зсз45725 0.0 101171
09:00+5зсз35695 0.0 101196
12:00+13сз4748100 0.0 1009267
15:00+15зсз61144100 0.0 10061262
18:00+10зсз476147 0.0 100598
21:00+8юз347082 0.1 100582